Miami, FL

12:33 PM EST on February 23, 2018 (GMT -0500)
Miami International

Weather History for KMIA - January, 2014

Change the Weather History Date:

Thursday, January 30, 2014

  Actual Average Record
Temperature  
Mean Temperature 66 °F 69 °F  
Max Temperature 70 °F 77 °F 86 °F (1991)
Min Temperature 61 °F 61 °F 36 °F (1940)
Degree Days  
Heating Degree Days 0 1  
Month to date heating degree days 55 55  
Since 1 July heating degree days 57 92  
Cooling Degree Days 1 5  
Month to date cooling degree days 142 150  
Year to date cooling degree days 142 150  
Growing Degree Days 16 (Base 50)    
Moisture  
Dew Point 64 °F    
Average Humidity 94    
Maximum Humidity 100    
Minimum Humidity 87    
Precipitation  
Precipitation 0.25 in 0.05 in 6.68 in (1926)
Month to date precipitation 1.83 1.56  
Year to date precipitation 1.83 1.56  
Snow  
Snow 0.00 in - - ()
Month to date snowfall 0.0  
Since 1 July snowfall 0.0  
Snow Depth 0.00 in    
Sea Level Pressure  
Sea Level Pressure 30.07 in    
Wind  
Wind Speed 6 mph (NNW)    
Max Wind Speed 10 mph    
Max Gust Speed 23 mph    
Visibility 7 miles    
Events Rain    
T = Trace of Precipitation, MM = Missing Value Source: NWS Daily Summary

Daily Weather History Graph

Daily Weather History Graph

Search for Another Location

Airport or City:

Trip Planner

Search our weather history database for the weather conditions in past years. The results will help you decide how hot, cold, wet, or windy it might be!

Date:

Astronomy

Jan. 30, 2014 Rise Set
Actual Time 7:05 AM EST 6:03 PM EST
Civil Twilight 6:41 AM EST 6:27 PM EST
Nautical Twilight 6:14 AM EST 6:55 PM EST
Astronomical Twilight 5:46 AM EST 7:22 PM EST
Moon 6:34 AM EST (1/30) 6:07 PM EST (1/30)
Length of Visible Light 11h 45m
Length of Day
10h 57m
Waning Crescent, 0% of the Moon is Illuminated
Jan 30
Waning Crescent
Jan 30
New
Feb 6
First Quarter
Feb 14
Full
Feb 22
Last Quarter

Hourly Weather History & Observations

Time (EST) Temp. Dew Point Humidity Pressure Visibility Wind Dir Wind Speed Gust Speed Precip Events Conditions
12:53 AM 61.0 °F 60.1 °F 97% 30.06 in 5.0 mi NW 9.2 mph - N/A   Overcast
1:53 AM 61.0 °F 59.0 °F 93% 30.06 in 5.0 mi NNW 8.1 mph - N/A   Overcast
2:53 AM 61.0 °F 60.1 °F 97% 30.04 in 5.0 mi NNW 4.6 mph - N/A   Overcast
3:53 AM 62.1 °F 60.1 °F 93% 30.05 in 6.0 mi NNW 5.8 mph - N/A   Overcast
4:53 AM 62.1 °F 60.1 °F 93% 30.05 in 3.0 mi West 3.5 mph - 0.03 in Rain Light Rain
5:53 AM 62.1 °F 61.0 °F 96% 30.05 in 6.0 mi NNW 6.9 mph - 0.01 in   Overcast
6:43 AM 62.6 °F 60.8 °F 94% 30.06 in 1.0 mi WNW 4.6 mph - N/A   Overcast
6:53 AM 62.1 °F 61.0 °F 96% 30.06 in 0.5 mi NW 5.8 mph - N/A   Overcast
7:53 AM 63.0 °F 62.1 °F 97% 30.08 in 2.5 mi NNW 6.9 mph - N/A   Overcast
8:51 AM 64.4 °F 62.6 °F 94% 30.08 in 5.0 mi NW 5.8 mph - N/A   Mostly Cloudy
8:53 AM 64.9 °F 63.0 °F 93% 30.09 in 5.0 mi NNW 8.1 mph - N/A   Overcast
9:50 AM 68.0 °F 64.4 °F 88% 30.10 in 7.0 mi NW 5.8 mph - N/A   Overcast
9:53 AM 68.0 °F 64.0 °F 87% 30.11 in 7.0 mi NNW 6.9 mph - N/A   Overcast
10:01 AM 68.0 °F 64.4 °F 88% 30.11 in 10.0 mi NW 4.6 mph - N/A   Overcast
10:53 AM 69.1 °F 64.0 °F 84% 30.12 in 10.0 mi Variable 3.5 mph - 0.00 in Rain Light Rain
11:22 AM 69.8 °F 64.4 °F 83% 30.11 in 10.0 mi North 8.1 mph - 0.00 in Rain Light Rain
11:53 AM 68.0 °F 64.0 °F 87% 30.11 in 10.0 mi NNW 4.6 mph - 0.02 in   Overcast
12:53 PM 69.1 °F 64.9 °F 87% 30.07 in 7.0 mi NE 5.8 mph - 0.00 in Rain Light Rain
1:53 PM 69.1 °F 64.9 °F 87% 30.06 in 10.0 mi NNW 4.6 mph - 0.01 in Rain Light Rain
2:27 PM 68.0 °F 64.4 °F 88% 30.05 in 10.0 mi West 8.1 mph - 0.00 in   Overcast
2:53 PM 68.0 °F 64.9 °F 90% 30.05 in 10.0 mi NNW 6.9 mph - 0.00 in   Overcast
3:53 PM 68.0 °F 64.0 °F 87% 30.05 in 8.0 mi North 5.8 mph - 0.00 in Rain Light Rain
4:53 PM 68.0 °F 64.9 °F 90% 30.06 in 10.0 mi North 8.1 mph - 0.00 in   Overcast
5:53 PM 66.9 °F 64.9 °F 93% 30.07 in 4.0 mi NNE 3.5 mph - 0.03 in Rain Light Rain
6:39 PM 66.2 °F 64.4 °F 94% 30.06 in 10.0 mi NNE 4.6 mph - 0.01 in   Overcast
6:53 PM 66.9 °F 64.9 °F 93% 30.06 in 10.0 mi NNE 5.8 mph - 0.01 in Rain Light Rain
7:53 PM 66.9 °F 66.0 °F 97% 30.06 in 4.0 mi NE 6.9 mph - 0.04 in Rain Light Rain
8:53 PM 69.1 °F 66.9 °F 93% 30.06 in 10.0 mi ENE 8.1 mph - 0.03 in   Overcast
9:53 PM 70.0 °F 69.1 °F 97% 30.07 in 7.0 mi North 4.6 mph - 0.02 in Rain Light Rain
10:53 PM 70.0 °F 68.0 °F 93% 30.07 in 10.0 mi NNE 4.6 mph - 0.01 in   Overcast
10:57 PM 69.8 °F 68.0 °F 94% 30.07 in 10.0 mi NNE 4.6 mph - N/A   Overcast
11:53 PM 69.1 °F 68.0 °F 96% 30.06 in 4.0 mi NW 4.6 mph - 0.02 in Rain Light Rain
11:59 PM 69.8 °F 68.0 °F 94% 30.06 in 4.0 mi Calm Calm - 0.02 in Rain Rain